User: anonymous   Login
Location: Unspecified
(0.0000°N, 0.0000°E)
Time: 15:03:52
(UTC+00:00)
Language:

FALCON 9 R/B - Orbit

View from above orbital plane
View from above orbital plane
View from above satellite
View from above satellite

Ground track
Ground track

The orbit data is extracted from the following two-line orbital elements,

1 37253U 10066K   18289.10585017  .00003501  00000-0  32307-3 0  9995
2 37253  34.5224 342.9015 4260854 179.7031 180.7634  6.93273563194202
Epoch (UTC): 16 October 2018 02:32:25
Eccentricity: 0.4260854
inclination: 34.5224°
perigee height: 289 km
apogee height: 10190 km
right ascension of ascending node: 342.9015°
argument of perigee: 179.7031°
revolutions per day: 6.93273563
mean anomaly at epoch: 180.7634°
orbit number at epoch: 19420

The dashed part of the orbit path shows where the satellite is in the earth's shadow,  

DLR